"Pseudo-MPEC" for CC60N42

Created 2024 Nov 3 3:31:09 UT using Find_Orb

Click here for an explanation of pseudo-MPECs

 
 Astrometry: 
     CC60N42*1C2024 10 27.45539608 08 40.024+28 58 14.70   ~ARBl 20.78GVNEOCPG96
     CC60N42 1C2024 10 27.46013708 08 41.075+28 58 29.24   ~ARBl 21.43GVNEOCPG96
     CC60N42 1C2024 10 27.46488408 08 42.097+28 58 44.29   ~ARBl 21.40GVNEOCPG96
     CC60N42 1C2024 10 27.46963108 08 43.184+28 58 59.63   ~ARBl 21.29GVNEOCPG96
     CC60N42 KC2024 10 27.51368908 08 53.063+29 01 19.16   ~ARCl 21.61GVNEOCPI52
     CC60N42 KC2024 10 27.51522908 08 53.369+29 01 23.77   ~ARCl 20.89GVNEOCPI52
     CC60N42 KC2024 10 27.51675308 08 53.722+29 01 28.81   ~ARCl 21.30GVNEOCPI52
     CC60N42 KC2024 10 27.51828108 08 54.074+29 01 34.28   ~ARCl 22.22GVNEOCPI52
     CC60N42 1C2024 10 28.40757108 12 19.465+29 48 37.12   ~ASAH 21.04GVNEOCPG96
     CC60N42 1C2024 10 28.40816008 12 19.595+29 48 38.81   ~ASAH 21.80GVNEOCPG96
     CC60N42 1C2024 10 28.40874908 12 19.706+29 48 40.75   ~ASAH 21.38GVNEOCPG96
     CC60N42 1C2024 10 28.40933708 12 19.850+29 48 42.62   ~ASAH 21.38GVNEOCPG96
     CC60N42 !C2024 10 30.12667708 19 05.413+31 20 57.77   ~AUFH 20.8 GVNEOCPJ04
     CC60N42 !C2024 10 30.14444908 19 09.591+31 21 55.85   ~AUFH 20.8 GVNEOCPJ04
     CC60N42 KC2024 10 31.41126208 24 17.399+32 30 57.85   ~AVAH 21.01GVNEOCPI52
     CC60N42 KC2024 10 31.41331408 24 17.939+32 31 05.05   ~AVAH 21.05GVNEOCPI52
     CC60N42 KC2024 10 31.41536708 24 18.432+32 31 11.53   ~AVAH 22.39GVNEOCPI52
     CC60N42 KC2024 10 31.41742008 24 18.886+32 31 18.70   ~AVAH 21.15GVNEOCPI52
     CC60N42 1C2024 10 31.99149 08 26 40.97 +33 02 45.2    ~B10V 20.6 VXNEOCP033
     CC60N42 1C2024 10 31.99441 08 26 41.70 +33 02 55.1    ~B10V 21.2 VXNEOCP033
     CC60N42 1C2024 10 31.99732 08 26 42.43 +33 03 04.9    ~B10V 20.8 VXNEOCP033
     CC60N42 KC2024 11 01.36216908 28 13.49 +33 23 17.0    ~B19H 21.2 GVNEOCPH21
     CC60N42 KC2024 11 01.36776608 28 14.88 +33 23 35.0    ~B19H 21.7 GVNEOCPH21
     CC60N42 KC2024 11 01.37354708 28 16.30 +33 23 54.9    ~B19H 21.2 GVNEOCPH21
     CC60N42 KC2024 11 02.03452108 31 03.24 +34 00 27.8    ~B21V 21.2 GVNEOCPL01
     CC60N42 KC2024 11 02.03798608 31 04.14 +34 00 39.3    ~B21V 21.0 GVNEOCPL01
     CC60N42 KC2024 11 02.04275508 31 05.29 +34 00 55.5    ~B21V 21.1 GVNEOCPL01
     CC60N42 KB2024 11 02.10609108 31 21.38 +34 04 27.6    ~B23l 21.1 GVNEOCPI93
     CC60N42 KB2024 11 02.12162108 31 25.26 +34 05 19.2    ~B23l 20.9 GVNEOCPI93
     CC60N42 KB2024 11 02.13609 08 31 28.79 +34 06 07.9    ~B2CV 21.1 GVNEOCP204
     CC60N42 KB2024 11 02.13714208 31 29.20 +34 06 11.8    ~B23l       VNEOCPI93
     CC60N42 KB2024 11 02.17103 08 31 37.55 +34 08 04.9    ~B2CV       VNEOCP204

Station data:
(033) Karl Schwarzschild Observatory, Tautenburg  (N50.980139 E11.711240)
   Germany.  Observer B. Stecklum. 1.34-m f/3 Schmidt + CCD.
(204) Schiaparelli Observatory  (N45.868292 E8.769720)  Italy.  Observer L.
   Buzzi. 0.60-m f/4.64 Newtonian + CCD0.84-m f/3.5 reflector + CCD.
(G96) Mt. Lemmon Survey  (N32.442729 W110.788720)  US/Arizona.  Observer E.
   J. Christensen. 1.5-m reflector + 10K CCD.
(H21) Astronomical Research Observatory, Westfield  (N39.483054 W87.968270)
   US/Illinois.  Observer R. Holmes. Measurers S. Foglia, L. Buzzi, T.
   Linder, R. Holmes. 0.76-m f/3.0 astrograph + CCD0.81-m f/4.0 astrograph +
   CCD0.61-m f/4.5 astrograph + CCD0.40-m f/5.32 astrograph + CCD.
(I52) Steward Observatory, Mt. Lemmon Station  (N32.442570 W110.788920)
   US/Arizona.  Observers T. A. Pruyne, B. M. Africano, E. J. Christensen, G.
   A. Farneth, D. C. Fuls, A. R. Gibbs, A. D. Grauer, H. Gröller, J. A.
   Johnson, R. A. Kowalski, S. M. Larson, G. J. Leonard, D. Rankin, R. L.
   Seaman, F. C. Shelly, K. W. Wierzchoś. 1.0-m prime focus + CCD.
(I93) St Pardon de Conques  (N44.558670 W0.202960)  France.  Observers F.
   Losse, W. D'Anna. Measurer F. Losse. 0.40-m f/3.7 reflector + CCD.
(J04) ESA Optical Ground Station, Tenerife  (N28.300921 W16.511830)  Canary
   Islands (Spain).  Observer R. Kresken. Measurers M. Micheli, D. Koschny,
   E. Schwab, M. Busch, A. Knöfel. 1.0-m f/4.4 reflector + CCD.
(L01) Višnjan Observatory, Tičan  (N45.290897 E13.749300)  Croatia.
   Observers K. Korlević, D. Pujagic, V. Dobos. Measurers D. Pujagic, K.
   Korlević. 1.0-m f/2.9 reflector + CCD.

Orbital elements:  CC60N42
   Perihelion 2024 Nov 4.09338 +/- 0.42 TT =  2:14:28 (JD 2460618.59338)
Epoch 2024 Nov  2.0 TT = JDT 2460616.5   Earth MOID: 0.2659      AutoNEOCP
M 359.11438916 +/- 0.12             (J2000 ecliptic)
n   0.42305250 +/- 0.0246           Peri.   13.31104 +/- 0.34
a   1.75741043 +/- 0.0682           Node    59.97372 +/- 0.45
e   0.2905762 +/- 0.0237            Incl.   39.27848 +/- 0.53
P   2.330/850.942d         H 20.03  G  0.15   U 10.3
q 1.24674866 +/- 0.00666    Q 2.26807221 +/- 0.13
From 32 observations 2024 Oct. 27-Nov. 2; mean residual 0".24
Residuals in arcseconds: 
241027 G96  .07+  .43+    241028 G96  .05+  .22-    241101 H21  .26+  .41-    
241027 G96  .05-  .09-    241030 J04  .19+  .28+    241101 H21  .18+  .19+    
241027 G96  .57-  .11-    241030 J04  .14-  .02+    241102 L01  .34-  .01-    
241027 G96  .23-  .15+    241031 I52  .28-  .43-    241102 L01  .01+  .15-    
241027 I52  .30+  .03-    241031 I52  .26+  .04-    241102 L01  .60-  .03+    
241027 I52  .19-  .30-    241031 I52  .21+  .37-    241102 I93  .01+  .36+    
241027 I52  .02-  .09-    241031 I52  .33-  .02-    241102 I93  .22-  .17-    
241027 I52  .12+  .54+    241031 033  .08-  .05-    241102 204  .02-  .18-    
241028 G96  .29+  .03-    241031 033  .00   .12+    241102 I93  .38+  .37+    
241028 G96  .23+  .24-    241031 033  .11+  .22+    241102 204  .21+  .06-    
241028 G96  .08-  .20-    241101 H21  .15+  .28+    

Ephemerides (geocentric):
Date (UTC) HH   RA             Dec           delta  r     elong  mag " sig PA
---- --------  ------------   ------------  ------ ------ -----  --- --------
2024 11 03 04  08 35 53.580   +35 03 36.46  .62699 1.2468  98.2 21.4 .442 145
2024 11 03 05  08 36 04.418   +35 05 56.18  .62682 1.2468  98.2 21.4 .451 146
2024 11 03 06  08 36 15.265   +35 08 15.93  .62666 1.2468  98.2 21.4 .460 146
2024 11 03 07  08 36 26.122   +35 10 35.71  .62649 1.2468  98.2 21.4 .469 147
2024 11 03 08  08 36 36.988   +35 12 55.52  .62633 1.2468  98.2 21.4 .479 148
2024 11 03 09  08 36 47.863   +35 15 15.36  .62617 1.2468  98.3 21.4 .488 148
2024 11 03 10  08 36 58.748   +35 17 35.24  .62600 1.2468  98.3 21.4 .498 149
2024 11 03 11  08 37 09.642   +35 19 55.14  .62584 1.2468  98.3 21.4 .508 150
2024 11 03 12  08 37 20.545   +35 22 15.08  .62568 1.2468  98.3 21.4 .519 150
2024 11 03 13  08 37 31.457   +35 24 35.05  .62552 1.2468  98.3 21.4 .529 151
2024 11 03 14  08 37 42.379   +35 26 55.04  .62536 1.2468  98.3 21.4 .540 151
2024 11 03 15  08 37 53.310   +35 29 15.06  .62520 1.2468  98.3 21.4 .551 152
2024 11 03 16  08 38 04.251   +35 31 35.12  .62504 1.2468  98.3 21.4 .562 153
2024 11 03 17  08 38 15.201   +35 33 55.20  .62488 1.2468  98.4 21.4 .573 153
2024 11 03 18  08 38 26.160   +35 36 15.31  .62472 1.2468  98.4 21.4 .585 154
2024 11 03 19  08 38 37.129   +35 38 35.45  .62456 1.2468  98.4 21.4 .596 154
2024 11 03 20  08 38 48.107   +35 40 55.61  .62440 1.2468  98.4 21.4 .608 155
2024 11 03 21  08 38 59.095   +35 43 15.81  .62424 1.2468  98.4 21.4 .620 155
2024 11 03 22  08 39 10.092   +35 45 36.03  .62409 1.2467  98.4 21.4 .632 156
2024 11 03 23  08 39 21.099   +35 47 56.28  .62393 1.2467  98.4 21.4 .645 156
2024 11 04 00  08 39 32.115   +35 50 16.55  .62377 1.2467  98.4 21.4 .658 157
2024 11 04 01  08 39 43.140   +35 52 36.85  .62362 1.2467  98.5 21.4 .671 157
2024 11 04 02  08 39 54.175   +35 54 57.18  .62346 1.2467  98.5 21.4 .684 158
2024 11 04 03  08 40 05.220   +35 57 17.54  .62330 1.2467  98.5 21.4 .697 158
2024 11 04 04  08 40 16.274   +35 59 37.92  .62315 1.2467  98.5 21.4 .711 159
2024 11 04 05  08 40 27.338   +36 01 58.32  .62299 1.2467  98.5 21.4 .724 159
2024 11 04 06  08 40 38.411   +36 04 18.75  .62284 1.2467  98.5 21.4 .738 160
2024 11 04 07  08 40 49.494   +36 06 39.21  .62269 1.2467  98.5 21.4 .752 160
2024 11 04 08  08 41 00.586   +36 08 59.68  .62253 1.2468  98.5 21.4 .767 161
2024 11 04 09  08 41 11.688   +36 11 20.19  .62238 1.2468  98.6 21.4 .782 161
2024 11 04 10  08 41 22.800   +36 13 40.72  .62223 1.2468  98.6 21.4 .796 162
2024 11 04 11  08 41 33.921   +36 16 01.27  .62208 1.2468  98.6 21.4 .811 162
2024 11 04 12  08 41 45.052   +36 18 21.84  .62192 1.2468  98.6 21.4 .827 162
2024 11 04 13  08 41 56.193   +36 20 42.44  .62177 1.2468  98.6 21.4 .842 163
2024 11 04 14  08 42 07.343   +36 23 03.06  .62162 1.2468  98.6 21.4 .858 163
2024 11 04 15  08 42 18.503   +36 25 23.70  .62147 1.2468  98.6 21.4 .874 164
2024 11 04 16  08 42 29.672   +36 27 44.37  .62132 1.2468  98.6 21.4 .890 164
2024 11 04 17  08 42 40.852   +36 30 05.05  .62117 1.2468  98.6 21.4 .907 165
2024 11 04 18  08 42 52.041   +36 32 25.76  .62102 1.2468  98.7 21.4 .924 165
2024 11 04 19  08 43 03.239   +36 34 46.49  .62088 1.2468  98.7 21.4 .941 165
2024 11 04 20  08 43 14.448   +36 37 07.24  .62073 1.2468  98.7 21.4 .958 166
2024 11 04 21  08 43 25.666   +36 39 28.01  .62058 1.2468  98.7 21.4 .975 166
2024 11 04 22  08 43 36.894   +36 41 48.80  .62043 1.2468  98.7 21.4 0.99 167
2024 11 04 23  08 43 48.132   +36 44 09.61  .62029 1.2468  98.7 21.4 1.01 167
2024 11 05 00  08 43 59.380   +36 46 30.45  .62014 1.2468  98.7 21.4 1.03 167
2024 11 05 01  08 44 10.637   +36 48 51.30  .61999 1.2468  98.7 21.4 1.05 168
2024 11 05 02  08 44 21.905   +36 51 12.17  .61985 1.2468  98.8 21.4 1.07 168
2024 11 05 03  08 44 33.182   +36 53 33.06  .61970 1.2468  98.8 21.4 1.09 168